Torna al catalogo

STARLINK-30162

AttivoComunicazioniVLEO
NORAD 57446·PAYLOAD·🇺🇸 United States

Lanciato Jul 24, 2023 da Cape Canaveral Space Force Station

Loading…

Prossimi Passaggi (prossime 24 ore)

TLE

AggiornatoSource: CelesTrak SupGP

Epoca: Sep 15, 2026, 01:45 UTC

1 57446C 23105S   26258.07340278 -.00005865  00000+0 -21253-3 0  2580
2 57446  43.0024 259.2637 0001323 257.7768 178.8600 15.27567879    14

Traccia STARLINK-30162 in tempo reale con AllMySat

Download on the App Store